星链-33551 (STARLINK-33551)

导读 | 星芒AI

STARLINK-33551 是 SpaceX 星链计划中的一颗低轨卫星,属于第 6 批星链卫星群。该卫星于 2023 年发射,旨在为全球提供高速互联网服务。它运行在约 550 公里的轨道高度,采用先进的通信技术和推进系统,支持星间激光链路,提升网络稳定性和覆盖范围。作为星链系统的一部分,STARLINK-33551 有助于扩大 SpaceX 在全球宽带市场的影响力,并推动偏远地区互联网接入的普及。

基本信息
目录编号:
62110
目录名称:
STARLINK-33551
国际标识:
2024-220Y
轨道中心:
EARTH
卫星名称:
星链-33551
卫星全名:
星链-33551 (STARLINK-33551)
卫星状态:
在轨 (已飞行390 天)
发射日期:
2024-11-25 UTC
国别 :
美国 (US)
星等 :
--
轨道信息
数据来源 国际轨道数据
星历时间: 2025-12-20T12:45:51+0800
7小时前
查看轨道信息
半长轴: 6861.163km
偏心率: 0.0001396
轨道倾角: 43.001°
近地点辐角 262.321°
升交点赤经 294.501°
平近点角 97.748°
近地点: 482.068km
远地点: 483.984km
周期: 94.266分钟
每日圈数: 15.27588
详细信息
固有亮度:
5
最大亮度:
2.5
卫星平台:
Starlink V1.0
覆盖范围:
全球
运营商:
太空探索技术公司
运营商所在国:
美国
制造商(研发单位):
太空探索技术公司
制造商所在国:
美国
使用方式:
暂无
卫星简介
Starlink 计划是 SpaceX 推出的全球卫星互联网项目,通过发射低轨道卫星,为全球尤其是偏远地区提供高速、低延迟的互联网服务。自 2019 年起,Starlink 已部署数千颗卫星,旨在缩小全球数字鸿沟,推动互联网普及。该项目还为军事、航空等行业提供通信支持,带来广泛经济效益。
2D轨道图
3D轨道图
轨道高度分析图
轨道倾角分析图
轨道综合分析图
查看轨道综合分析图